Location: Campestrin
(46.4667°N, 11.7167°E)
Time: 02:59:42
(UTC+00:00)

ATLAS 5 CENTAUR R/B - Pass Details

Date: 18 April 2021
Orbit: 516 x 1141 km, 63.3° (Epoch: 02 May)

Event Time Altitude Azimuth Distance (km) Brightness Sun altitude
Rises 19:17:55 0° 266° (W) 2,718 5.8 -12.3°
Reaches altitude 10° 19:20:32 10° 285° (WNW) 1,891 5.3 -12.6°
Maximum altitude 19:23:39 20° 333° (NNW) 1,462 4.3 -13.1°
Drops below altitude 10° 19:27:06 10° 20° (NNE) 2,115 4.5 -13.6°
Sets 19:30:14 0° 37° (NE) 3,161 5.2 -14.0°
